| time (UTC) | temp F | wind direction | speed MPH | gust MPH | rain 1hr in | rain 24hr in | rain mn in | humidity % | barometer mb |
| 20260903213203 | 84 | 257 | 3.0 | 5.0 | 0.00 | 0.03 | 0.03 | 22 | 1012.7 |
| 20260903212659 | 83 | 241 | 5.0 | 7.0 | 0.00 | 0.03 | 0.03 | 20 | 1012.9 |
| 20260903212156 | 84 | 293 | 3.0 | 5.0 | 0.00 | 0.03 | 0.03 | 20 | 1012.7 |
| 20260903211649 | 83 | 249 | 7.0 | 16.0 | 0.00 | 0.03 | 0.03 | 20 | 1012.7 |
| 20260903211146 | 83 | 267 | 4.0 | 8.0 | 0.00 | 0.03 | 0.03 | 22 | 1012.5 |
| 20260903210642 | 83 | 189 | 6.0 | 9.0 | 0.00 | 0.03 | 0.03 | 19 | 1012.7 |
| 20260903210137 | 84 | 262 | 7.0 | 8.0 | 0.00 | 0.03 | 0.03 | 20 | 1013.0 |
| 20260903205636 | 83 | 303 | 4.0 | 10.0 | 0.00 | 0.03 | 0.03 | 20 | 1012.7 |
| 20260903205131 | 83 | 236 | 6.0 | 7.0 | 0.00 | 0.03 | 0.03 | 20 | 1012.9 |
| 20260903204627 | 82 | 345 | 3.0 | 10.0 | 0.00 | 0.03 | 0.03 | 20 | 1012.9 |
| 20260903204123 | 83 | 199 | 7.0 | 8.0 | 0.00 | 0.03 | 0.03 | 19 | 1013.0 |
| 20260903203618 | 82 | 278 | 4.0 | 11.0 | 0.00 | 0.03 | 0.03 | 21 | 1013.2 |
| 20260903203117 | 83 | 284 | 2.0 | 7.0 | 0.00 | 0.03 | 0.03 | 20 | 1013.0 |
| 20260903202613 | 82 | 256 | 4.0 | 9.0 | 0.00 | 0.03 | 0.03 | 20 | 1013.0 |
| 20260903202109 | 83 | 263 | 4.0 | 8.0 | 0.00 | 0.03 | 0.03 | 22 | 1013.1 |
| 20260903201603 | 83 | 213 | 4.0 | 6.0 | 0.00 | 0.03 | 0.03 | 19 | 1013.0 |
| 20260903201102 | 82 | 269 | 4.0 | 11.0 | 0.00 | 0.03 | 0.03 | 20 | 1013.4 |
| 20260903200557 | 82 | 239 | 5.0 | 8.0 | 0.00 | 0.03 | 0.03 | 20 | 1013.2 |
| 20260903200052 | 81 | 268 | 6.0 | 13.0 | 0.00 | 0.03 | 0.03 | 22 | 1013.5 |
| 20260903195548 | 82 | 237 | 2.0 | 6.0 | 0.00 | 0.03 | 0.03 | 22 | 1013.5 |
| 20260903195044 | 82 | 291 | 4.0 | 5.0 | 0.00 | 0.03 | 0.03 | 24 | 1013.4 |
| 20260903194539 | 81 | 229 | 4.0 | 8.0 | 0.00 | 0.03 | 0.03 | 21 | 1013.5 |
| 20260903194034 | 81 | 291 | 4.0 | 11.0 | 0.00 | 0.03 | 0.03 | 24 | 1013.6 |
| 20260903193530 | 81 | 293 | 6.0 | 7.0 | 0.00 | 0.03 | 0.03 | 22 | 1013.6 |
| 20260903193025 | 82 | 259 | 2.0 | 3.0 | 0.00 | 0.03 | 0.03 | 26 | 1013.7 |
| 20260903192523 | 82 | 280 | 3.0 | 6.0 | 0.00 | 0.03 | 0.03 | 23 | 1013.9 |
| 20260903192022 | 82 | 206 | 5.0 | 5.0 | 0.00 | 0.03 | 0.03 | 26 | 1014.1 |
| 20260903191518 | 80 | 285 | 2.0 | 4.0 | 0.00 | 0.03 | 0.03 | 28 | 1014.2 |
| 20260903191013 | 80 | 256 | 4.0 | 7.0 | 0.00 | 0.03 | 0.03 | 29 | 1014.2 |
| 20260903190507 | 80 | 298 | 2.0 | 3.0 | 0.00 | 0.03 | 0.03 | 29 | 1014.3 |
| 20260903190007 | 79 | 252 | 4.0 | 9.0 | 0.00 | 0.03 | 0.03 | 27 | 1014.7 |
| 20260903185502 | 79 | 181 | 3.0 | 7.0 | 0.00 | 0.03 | 0.03 | 28 | 1014.3 |
| 20260903184957 | 80 | 310 | 5.0 | 5.0 | 0.00 | 0.03 | 0.03 | 29 | 1014.4 |
| 20260903184454 | 80 | 181 | 2.0 | 4.0 | 0.00 | 0.03 | 0.03 | 27 | 1014.3 |
| 20260903183953 | 79 | 284 | 2.0 | 4.0 | 0.00 | 0.03 | 0.03 | 31 | 1014.4 |
| 20260903183447 | 78 | 226 | 4.0 | 9.0 | 0.00 | 0.03 | 0.03 | 30 | 1014.4 |
| 20260903182942 | 80 | 162 | 3.0 | 4.0 | 0.00 | 0.03 | 0.03 | 27 | 1014.8 |
| 20260903182441 | 79 | 244 | 2.0 | 4.0 | 0.00 | 0.03 | 0.03 | 30 | 1014.8 |
| 20260903181936 | 78 | 178 | 2.0 | 4.0 | 0.00 | 0.03 | 0.03 | 30 | 1014.7 |
| 20260903181431 | 78 | 279 | 2.0 | 6.0 | 0.00 | 0.03 | 0.03 | 30 | 1014.9 |
| 20260903180930 | 77 | 226 | 3.0 | 7.0 | 0.00 | 0.03 | 0.03 | 29 | 1014.9 |
| 20260903180425 | 76 | 280 | 4.0 | 9.0 | 0.00 | 0.03 | 0.03 | 30 | 1014.9 |
| 20260903175924 | 77 | 247 | 8.0 | 10.0 | 0.00 | 0.03 | 0.03 | 27 | 1014.9 |
| 20260903175420 | 77 | 216 | 7.0 | 10.0 | 0.00 | 0.03 | 0.03 | 27 | 1015.0 |
| 20260903174913 | 77 | 268 | 5.0 | 5.0 | 0.00 | 0.03 | 0.03 | 28 | 1014.9 |
| 20260903174408 | 76 | 195 | 5.0 | 5.0 | 0.00 | 0.03 | 0.03 | 30 | 1015.0 |
| 20260903173903 | 75 | 260 | 2.0 | 5.0 | 0.00 | 0.03 | 0.03 | 32 | 1015.4 |
| 20260903173358 | 76 | 277 | 2.0 | 4.0 | 0.00 | 0.03 | 0.03 | 32 | 1015.2 |
| 20260903172854 | 76 | 231 | 0.0 | 4.0 | 0.00 | 0.03 | 0.03 | 33 | 1014.9 |
| 20260903172353 | 76 | 325 | 2.0 | 5.0 | 0.00 | 0.03 | 0.03 | 35 | 1014.8 |
| 20260903171849 | 76 | 4 | 2.0 | 8.0 | 0.00 | 0.03 | 0.03 | 33 | 1015.2 |
| 20260903171344 | 76 | 311 | 4.0 | 4.0 | 0.00 | 0.03 | 0.03 | 34 | 1014.9 |
| 20260903170843 | 75 | 299 | 3.0 | 6.0 | 0.00 | 0.03 | 0.03 | 35 | 1015.1 |
| 20260903170344 | 74 | 295 | 2.0 | 6.0 | 0.00 | 0.03 | 0.03 | 37 | 1015.1 |
| 20260903165842 | 74 | 309 | 0.0 | 4.0 | 0.00 | 0.03 | 0.03 | 36 | 1015.2 |
| 20260903165337 | 74 | 291 | 3.0 | 5.0 | 0.00 | 0.03 | 0.03 | 35 | 1015.1 |
| 20260903164832 | 74 | 284 | 2.0 | 5.0 | 0.00 | 0.03 | 0.03 | 37 | 1015.4 |
| 20260903164327 | 73 | 304 | 3.0 | 3.0 | 0.00 | 0.03 | 0.03 | 36 | 1015.1 |
| 20260903163826 | 74 | 314 | 2.0 | 2.0 | 0.00 | 0.03 | 0.03 | 37 | 1015.4 |
| 20260903163323 | 73 | 288 | 2.0 | 4.0 | 0.00 | 0.03 | 0.03 | 35 | 1015.2 |
| 20260903162818 | 73 | 256 | 0.0 | 3.0 | 0.00 | 0.03 | 0.03 | 36 | 1015.1 |
| 20260903162315 | 72 | 262 | 0.0 | 3.0 | 0.00 | 0.03 | 0.03 | 34 | 1015.2 |
| 20260903161810 | 73 | 294 | 3.0 | 3.0 | 0.00 | 0.03 | 0.03 | 33 | 1015.2 |
| 20260903161306 | 73 | 303 | 2.0 | 2.0 | 0.00 | 0.03 | 0.03 | 33 | 1015.1 |
| 20260903160801 | 72 | 219 | 0.0 | 2.0 | 0.00 | 0.03 | 0.03 | 32 | 1015.1 |
| 20260903160255 | 71 | 351 | 0.0 | 2.0 | 0.00 | 0.03 | 0.03 | 30 | 1015.4 |
| 20260903155753 | 70 | 348 | 0.0 | 2.0 | 0.00 | 0.03 | 0.03 | 29 | 1015.0 |
| 20260903155248 | 68 | 37 | 2.0 | 3.0 | 0.00 | 0.03 | 0.03 | 29 | 1015.1 |
| 20260903154744 | 68 | 21 | 1.0 | 2.0 | 0.00 | 0.03 | 0.03 | 30 | 1015.1 |
| 20260903154240 | 67 | 52 | 1.0 | 4.0 | 0.00 | 0.03 | 0.03 | 30 | 1015.2 |
| 20260903153735 | 65 | 113 | 4.0 | 5.0 | 0.00 | 0.03 | 0.03 | 31 | 1015.4 |
| 20260903153231 | 64 | 92 | 3.0 | 5.0 | 0.00 | 0.03 | 0.03 | 32 | 1015.5 |
| 20260903152727 | 63 | 110 | 6.0 | 10.0 | 0.00 | 0.03 | 0.03 | 33 | 1015.1 |
| 20260903152223 | 62 | 60 | 3.0 | 10.0 | 0.00 | 0.03 | 0.03 | 34 | 1015.4 |
| 20260903151722 | 62 | 59 | 4.0 | 7.0 | 0.00 | 0.03 | 0.03 | 35 | 1015.2 |
| 20260903151218 | 61 | 119 | 3.0 | 10.0 | 0.00 | 0.03 | 0.03 | 35 | 1015.4 |
| 20260903150713 | 60 | 103 | 6.0 | 14.0 | 0.00 | 0.03 | 0.03 | 35 | 1015.0 |
| 20260903150207 | 60 | 44 | 5.0 | 11.0 | 0.00 | 0.03 | 0.03 | 35 | 1015.0 |
| 20260903145702 | 59 | 54 | 5.0 | 10.0 | 0.00 | 0.03 | 0.03 | 37 | 1015.0 |
| 20260903145157 | 59 | 85 | 3.0 | 9.0 | 0.00 | 0.03 | 0.03 | 37 | 1015.1 |
| 20260903144656 | 59 | 89 | 4.0 | 7.0 | 0.00 | 0.03 | 0.03 | 37 | 1014.8 |
| 20260903144152 | 58 | 42 | 5.0 | 10.0 | 0.00 | 0.03 | 0.03 | 37 | 1015.1 |
| 20260903143648 | 57 | 100 | 3.0 | 7.0 | 0.00 | 0.03 | 0.03 | 37 | 1015.0 |
| 20260903143143 | 57 | 20 | 6.0 | 9.0 | 0.00 | 0.03 | 0.03 | 39 | 1015.0 |
| 20260903142639 | 56 | 37 | 6.0 | 9.0 | 0.00 | 0.03 | 0.03 | 38 | 1015.1 |
| 20260903142136 | 55 | 56 | 5.0 | 10.0 | 0.00 | 0.03 | 0.03 | 38 | 1015.0 |
| 20260903141631 | 54 | 72 | 6.0 | 12.0 | 0.00 | 0.03 | 0.03 | 39 | 1014.8 |
| 20260903141125 | 54 | 11 | 5.0 | 10.0 | 0.00 | 0.03 | 0.03 | 39 | 1014.9 |
| 20260903140622 | 54 | 22 | 5.0 | 9.0 | 0.00 | 0.03 | 0.03 | 40 | 1014.9 |
| 20260903140117 | 52 | 62 | 6.0 | 12.0 | 0.00 | 0.03 | 0.03 | 41 | 1015.0 |
| 20260903135612 | 51 | 111 | 5.0 | 9.0 | 0.00 | 0.03 | 0.03 | 43 | 1014.8 |
| 20260903135112 | 50 | 64 | 7.0 | 12.0 | 0.00 | 0.03 | 0.03 | 43 | 1014.5 |
| 20260903134611 | 50 | 18 | 3.0 | 14.0 | 0.00 | 0.03 | 0.03 | 45 | 1014.9 |
| 20260903134107 | 50 | 53 | 6.0 | 11.0 | 0.00 | 0.03 | 0.03 | 44 | 1014.7 |
| 20260903133605 | 50 | 19 | 3.0 | 11.0 | 0.00 | 0.03 | 0.03 | 46 | 1014.8 |
| 20260903133100 | 50 | 52 | 11.0 | 13.0 | 0.00 | 0.03 | 0.03 | 44 | 1014.5 |
| 20260903132556 | 50 | 42 | 7.0 | 9.0 | 0.00 | 0.03 | 0.03 | 45 | 1014.4 |
| 20260903132051 | 50 | 85 | 6.0 | 12.0 | 0.00 | 0.03 | 0.03 | 44 | 1014.7 |
| 20260903131550 | 49 | 52 | 8.0 | 14.0 | 0.00 | 0.03 | 0.03 | 45 | 1014.4 |
| 20260903131049 | 49 | 52 | 3.0 | 9.0 | 0.00 | 0.03 | 0.03 | 47 | 1014.7 |
| 20260903130544 | 49 | 25 | 7.0 | 11.0 | 0.00 | 0.03 | 0.03 | 45 | 1014.4 |
| 20260903130039 | 49 | 7 | 6.0 | 11.0 | 0.00 | 0.03 | 0.03 | 47 | 1014.5 |
| 20260903125537 | 49 | 55 | 8.0 | 11.0 | 0.00 | 0.03 | 0.03 | 46 | 1014.7 |
| 20260903125032 | 49 | 15 | 2.0 | 11.0 | 0.00 | 0.03 | 0.03 | 47 | 1014.7 |
| 20260903124527 | 49 | 129 | 2.0 | 7.0 | 0.00 | 0.03 | 0.03 | 46 | 1014.5 |
| 20260903124026 | 49 | 32 | 7.0 | 14.0 | 0.02 | 0.03 | 0.03 | 46 | 1014.3 |
| 20260903123520 | 49 | 23 | 9.0 | 12.0 | 0.09 | 0.03 | 0.03 | 46 | 1014.4 |
| 20260903123020 | 49 | 14 | 3.0 | 9.0 | 0.14 | 0.03 | 0.03 | 47 | 1014.7 |
| 20260903122514 | 49 | 30 | 8.0 | 11.0 | 0.07 | 0.01 | 0.01 | 46 | 1014.4 |
| 20260903122014 | 49 | 62 | 8.0 | 11.0 | 0.00 | 0.00 | 0.00 | 46 | 1014.7 |
| 20260903121514 | 49 | 77 | 7.0 | 11.0 | 0.00 | 0.00 | 0.00 | 46 | 1014.7 |
| 20260903121010 | 49 | 83 | 5.0 | 11.0 | 0.00 | 0.00 | 0.00 | 46 | 1014.8 |
| 20260903120508 | 50 | 42 | 9.0 | 13.0 | 0.00 | 0.00 | 0.00 | 45 | 1014.4 |
| 20260903120009 | 50 | 70 | 5.0 | 12.0 | 0.00 | 0.00 | 0.00 | 46 | 1014.7 |
| 20260903115508 | 50 | 68 | 4.0 | 10.0 | 0.00 | 0.00 | 0.00 | 46 | 1014.4 |
| 20260903115008 | 50 | 88 | 6.0 | 9.0 | 0.00 | 0.00 | 0.00 | 47 | 1014.5 |
| 20260903114503 | 50 | 77 | 5.0 | 12.0 | 0.00 | 0.00 | 0.00 | 45 | 1014.8 |
| 20260903113958 | 50 | 69 | 10.0 | 11.0 | 0.00 | 0.00 | 0.00 | 44 | 1014.5 |
| 20260903113454 | 50 | 61 | 3.0 | 12.0 | 0.00 | 0.00 | 0.00 | 45 | 1014.5 |
| 20260903112950 | 50 | 77 | 4.0 | 11.0 | 0.00 | 0.00 | 0.00 | 46 | 1014.7 |
| 20260903112446 | 50 | 28 | 6.0 | 8.0 | 0.00 | 0.00 | 0.00 | 45 | 1014.8 |
| 20260903111945 | 50 | 32 | 5.0 | 9.0 | 0.00 | 0.00 | 0.00 | 46 | 1014.4 |
| 20260903111444 | 50 | 43 | 8.0 | 8.0 | 0.00 | 0.00 | 0.00 | 46 | 1014.4 |
| 20260903110941 | 50 | 74 | 2.0 | 9.0 | 0.00 | 0.00 | 0.00 | 45 | 1014.4 |
| 20260903110437 | 50 | 50 | 4.0 | 10.0 | 0.00 | 0.00 | 0.00 | 45 | 1014.2 |
| 20260903105931 | 50 | 52 | 7.0 | 9.0 | 0.00 | 0.00 | 0.00 | 45 | 1014.2 |
| 20260903105427 | 50 | 73 | 4.0 | 16.0 | 0.00 | 0.00 | 0.00 | 45 | 1014.3 |
| 20260903104926 | 51 | 62 | 6.0 | 10.0 | 0.00 | 0.00 | 0.00 | 44 | 1014.5 |
| 20260903104425 | 51 | 53 | 7.0 | 14.0 | 0.00 | 0.00 | 0.00 | 43 | 1014.3 |
| 20260903103923 | 51 | 92 | 4.0 | 11.0 | 0.00 | 0.00 | 0.00 | 44 | 1014.4 |
| 20260903103418 | 51 | 68 | 7.0 | 12.0 | 0.00 | 0.00 | 0.00 | 44 | 1014.4 |
| 20260903102913 | 51 | 73 | 6.0 | 10.0 | 0.00 | 0.00 | 0.00 | 44 | 1014.4 |
| 20260903102408 | 50 | 53 | 8.0 | 9.0 | 0.00 | 0.00 | 0.00 | 45 | 1014.3 |
| 20260903101908 | 51 | 55 | 9.0 | 11.0 | 0.00 | 0.00 | 0.00 | 45 | 1014.4 |
| 20260903101403 | 51 | 103 | 7.0 | 12.0 | 0.00 | 0.00 | 0.00 | 45 | 1014.4 |
| 20260903100858 | 51 | 101 | 4.0 | 13.0 | 0.00 | 0.00 | 0.00 | 45 | 1014.4 |
| 20260903100353 | 50 | 57 | 14.0 | 16.0 | 0.00 | 0.00 | 0.00 | 44 | 1014.2 |
| 20260903095844 | 51 | 69 | 7.0 | 13.0 | 0.00 | 0.00 | 0.00 | 44 | 1014.4 |
| 20260903095338 | 51 | 59 | 4.0 | 10.0 | 0.00 | 0.00 | 0.00 | 45 | 1014.4 |
| 20260903094833 | 51 | 41 | 10.0 | 14.0 | 0.00 | 0.00 | 0.00 | 45 | 1014.3 |
| 20260903094328 | 51 | 85 | 7.0 | 14.0 | 0.00 | 0.00 | 0.00 | 45 | 1014.8 |
| 20260903093824 | 51 | 75 | 5.0 | 13.0 | 0.00 | 0.00 | 0.00 | 46 | 1014.4 |
| 20260903093319 | 51 | 67 | 5.0 | 12.0 | 0.00 | 0.00 | 0.00 | 45 | 1014.7 |
| 20260903092820 | 51 | 74 | 8.0 | 12.0 | 0.00 | 0.00 | 0.00 | 45 | 1014.4 |
| 20260903092314 | 51 | 65 | 9.0 | 11.0 | 0.00 | 0.00 | 0.00 | 44 | 1014.4 |
| 20260903091813 | 51 | 40 | 12.0 | 13.0 | 0.00 | 0.00 | 0.00 | 44 | 1014.3 |
| 20260903091307 | 51 | 98 | 4.0 | 14.0 | 0.00 | 0.00 | 0.00 | 44 | 1014.5 |
| 20260903090803 | 51 | 83 | 6.0 | 8.0 | 0.00 | 0.00 | 0.00 | 44 | 1014.4 |
| 20260903090302 | 51 | 97 | 6.0 | 11.0 | 0.00 | 0.00 | 0.00 | 45 | 1014.2 |
| 20260903085801 | 51 | 119 | 9.0 | 9.0 | 0.00 | 0.00 | 0.00 | 45 | 1014.5 |
| 20260903085255 | 51 | 86 | 4.0 | 11.0 | 0.00 | 0.00 | 0.00 | 45 | 1014.3 |
| 20260903084754 | 51 | 71 | 6.0 | 12.0 | 0.00 | 0.00 | 0.00 | 45 | 1014.3 |
| 20260903084248 | 51 | 86 | 6.0 | 13.0 | 0.00 | 0.00 | 0.00 | 45 | 1014.4 |
| 20260903083744 | 51 | 88 | 5.0 | 10.0 | 0.00 | 0.00 | 0.00 | 45 | 1014.4 |
| 20260903083244 | 51 | 96 | 2.0 | 12.0 | 0.00 | 0.00 | 0.00 | 45 | 1014.3 |
| 20260903082743 | 52 | 108 | 5.0 | 11.0 | 0.00 | 0.00 | 0.00 | 43 | 1014.4 |
| 20260903082239 | 52 | 95 | 5.0 | 10.0 | 0.00 | 0.00 | 0.00 | 43 | 1014.5 |
| 20260903081739 | 52 | 119 | 10.0 | 12.0 | 0.00 | 0.00 | 0.00 | 43 | 1014.7 |
| 20260903081230 | 52 | 106 | 8.0 | 11.0 | 0.00 | 0.00 | 0.00 | 44 | 1014.7 |
| 20260903080726 | 52 | 60 | 4.0 | 11.0 | 0.00 | 0.00 | 0.00 | 44 | 1014.7 |
| 20260903080223 | 52 | 86 | 6.0 | 10.0 | 0.00 | 0.00 | 0.00 | 45 | 1014.9 |
| 20260903075722 | 52 | 62 | 5.0 | 9.0 | 0.00 | 0.00 | 0.00 | 44 | 1014.8 |
| 20260903075217 | 53 | 61 | 4.0 | 8.0 | 0.00 | 0.00 | 0.00 | 43 | 1014.9 |
| 20260903074716 | 53 | 76 | 4.0 | 10.0 | 0.00 | 0.00 | 0.00 | 42 | 1014.8 |
| 20260903074212 | 53 | 77 | 6.0 | 12.0 | 0.00 | 0.00 | 0.00 | 43 | 1014.9 |
| 20260903073706 | 53 | 108 | 5.0 | 13.0 | 0.00 | 0.00 | 0.00 | 42 | 1014.7 |
| 20260903073201 | 53 | 73 | 8.0 | 11.0 | 0.00 | 0.00 | 0.00 | 41 | 1014.4 |
| 20260903072657 | 53 | 41 | 7.0 | 11.0 | 0.00 | 0.00 | 0.00 | 42 | 1014.4 |
| 20260903072154 | 53 | 79 | 8.0 | 12.0 | 0.00 | 0.00 | 0.00 | 42 | 1014.7 |
| 20260903071650 | 54 | 93 | 6.0 | 11.0 | 0.00 | 0.00 | 0.00 | 42 | 1014.3 |
| 20260903071145 | 54 | 89 | 3.0 | 12.0 | 0.00 | 0.00 | 0.00 | 42 | 1014.5 |
| 20260903070640 | 54 | 72 | 5.0 | 9.0 | 0.00 | 0.00 | 0.00 | 42 | 1014.7 |
| 20260903070135 | 54 | 50 | 12.0 | 12.0 | 0.00 | 0.00 | 0.00 | 41 | 1014.5 |
| 20260903065635 | 54 | 79 | 8.0 | 11.0 | 0.00 | 0.00 | 0.00 | 42 | 1014.7 |
| 20260903065129 | 55 | 51 | 4.0 | 11.0 | 0.00 | 0.00 | 0.00 | 40 | 1014.5 |
| 20260903064624 | 55 | 109 | 6.0 | 15.0 | 0.00 | 0.00 | 0.00 | 40 | 1014.3 |
| 20260903064119 | 55 | 92 | 6.0 | 11.0 | 0.00 | 0.00 | 0.00 | 41 | 1014.4 |
| 20260903063615 | 55 | 76 | 7.0 | 13.0 | 0.00 | 0.00 | 0.00 | 41 | 1014.4 |
| 20260903063110 | 55 | 76 | 6.0 | 10.0 | 0.00 | 0.00 | 0.00 | 41 | 1014.4 |
| 20260903062605 | 55 | 68 | 4.0 | 7.0 | 0.00 | 0.00 | 0.00 | 42 | 1014.4 |
| 20260903062101 | 55 | 69 | 9.0 | 13.0 | 0.00 | 0.00 | 0.00 | 41 | 1014.2 |
| 20260903061556 | 55 | 72 | 4.0 | 9.0 | 0.00 | 0.00 | 0.00 | 40 | 1014.3 |
| 20260903061055 | 56 | 46 | 3.0 | 8.0 | 0.00 | 0.00 | 0.00 | 41 | 1014.3 |
| 20260903060555 | 56 | 59 | 7.0 | 8.0 | 0.00 | 0.00 | 0.00 | 39 | 1014.3 |
| 20260903060050 | 56 | 56 | 6.0 | 8.0 | 0.00 | 0.00 | 0.00 | 39 | 1014.3 |
| 20260903055547 | 56 | 57 | 6.0 | 10.0 | 0.00 | 0.00 | 0.00 | 40 | 1014.2 |
| 20260903055047 | 56 | 55 | 7.0 | 9.0 | 0.00 | 0.00 | 0.00 | 40 | 1014.3 |
| 20260903054542 | 57 | 113 | 5.0 | 10.0 | 0.00 | 0.00 | 0.00 | 40 | 1014.2 |
| 20260903054037 | 57 | 48 | 5.0 | 12.0 | 0.00 | 0.00 | 0.00 | 40 | 1014.3 |
| 20260903053532 | 57 | 93 | 4.0 | 11.0 | 0.00 | 0.00 | 0.00 | 40 | 1014.2 |
| 20260903053029 | 57 | 54 | 4.0 | 13.0 | 0.00 | 0.00 | 0.00 | 39 | 1014.3 |
| 20260903052524 | 57 | 42 | 8.0 | 10.0 | 0.00 | 0.00 | 0.00 | 39 | 1014.2 |
| 20260903052020 | 58 | 32 | 6.0 | 9.0 | 0.00 | 0.00 | 0.00 | 39 | 1014.2 |
| 20260903051520 | 58 | 105 | 4.0 | 9.0 | 0.00 | 0.00 | 0.00 | 38 | 1014.3 |
| 20260903051016 | 58 | 28 | 3.0 | 7.0 | 0.00 | 0.00 | 0.00 | 40 | 1014.5 |
| 20260903050514 | 58 | 50 | 3.0 | 6.0 | 0.00 | 0.00 | 0.00 | 39 | 1014.3 |
| 20260903050010 | 59 | 70 | 3.0 | 7.0 | 0.00 | 0.00 | 0.00 | 38 | 1014.3 |
| 20260903045509 | 59 | 63 | 4.0 | 5.0 | 0.00 | 0.00 | 0.00 | 38 | 1014.4 |
| 20260903045006 | 59 | 33 | 4.0 | 5.0 | 0.00 | 0.00 | 0.00 | 38 | 1014.1 |
| 20260903044501 | 59 | 39 | 7.0 | 8.0 | 0.00 | 0.00 | 0.00 | 38 | 1014.4 |
| 20260903043957 | 60 | 75 | 5.0 | 7.0 | 0.00 | 0.00 | 0.00 | 38 | 1014.3 |
| 20260903043453 | 60 | 76 | 4.0 | 9.0 | 0.00 | 0.00 | 0.00 | 36 | 1014.3 |
| 20260903042951 | 60 | 61 | 6.0 | 6.0 | 0.00 | 0.00 | 0.00 | 36 | 1014.4 |
| 20260903042447 | 60 | 37 | 0.0 | 2.0 | 0.00 | 0.00 | 0.00 | 38 | 1014.3 |
| 20260903041943 | 59 | 66 | 3.0 | 5.0 | 0.00 | 0.00 | 0.00 | 39 | 1014.7 |
| 20260903041439 | 60 | 56 | 4.0 | 11.0 | 0.00 | 0.00 | 0.00 | 38 | 1013.9 |
| 20260903040934 | 60 | 59 | 2.0 | 5.0 | 0.00 | 0.00 | 0.00 | 39 | 1013.9 |
| 20260903040433 | 60 | 63 | 3.0 | 7.0 | 0.00 | 0.00 | 0.00 | 39 | 1013.8 |
| 20260903035929 | 60 | 35 | 5.0 | 7.0 | 0.00 | 0.00 | 0.00 | 37 | 1013.9 |
| 20260903035426 | 60 | 50 | 4.0 | 6.0 | 0.00 | 0.00 | 0.00 | 38 | 1013.7 |
| 20260903034926 | 60 | 52 | 4.0 | 6.0 | 0.00 | 0.00 | 0.00 | 39 | 1013.9 |
| 20260903034420 | 59 | 44 | 2.0 | 3.0 | 0.00 | 0.00 | 0.00 | 43 | 1013.7 |
| 20260903033916 | 59 | 60 | 3.0 | 4.0 | 0.00 | 0.00 | 0.00 | 44 | 1013.9 |
| 20260903033411 | 58 | 41 | 2.0 | 2.0 | 0.00 | 0.00 | 0.00 | 48 | 1013.8 |
| 20260903032906 | 59 | 75 | 2.0 | 2.0 | 0.00 | 0.00 | 0.00 | 49 | 1013.5 |
| 20260903032401 | 59 | 76 | 1.0 | 4.0 | 0.00 | 0.00 | 0.00 | 48 | 1013.6 |
| 20260903031856 | 59 | 57 | 2.0 | 2.0 | 0.00 | 0.00 | 0.00 | 50 | 1013.0 |
| 20260903031355 | 59 | 77 | 1.0 | 2.0 | 0.00 | 0.00 | 0.00 | 48 | 1013.4 |
| 20260903030851 | 60 | 11 | 1.0 | 2.0 | 0.00 | 0.00 | 0.00 | 46 | 1013.4 |
| 20260903030347 | 60 | 36 | 1.0 | 1.0 | 0.00 | 0.00 | 0.00 | 47 | 1013.2 |
| 20260903025843 | 61 | 26 | 1.0 | 2.0 | 0.00 | 0.00 | 0.00 | 45 | 1013.5 |
| 20260903025338 | 61 | 42 | 2.0 | 2.0 | 0.00 | 0.00 | 0.00 | 43 | 1013.2 |
| 20260903024837 | 61 | 78 | 0.0 | 2.0 | 0.00 | 0.00 | 0.00 | 43 | 1013.2 |
| 20260903024332 | 62 | 45 | 1.0 | 2.0 | 0.00 | 0.00 | 0.00 | 43 | 1013.2 |
| 20260903023828 | 62 | 328 | 1.0 | 1.0 | 0.00 | 0.00 | 0.00 | 38 | 1012.9 |
| 20260903023323 | 63 | 340 | 2.0 | 2.0 | 0.00 | 0.00 | 0.00 | 35 | 1013.0 |
| 20260903022818 | 64 | 1 | 1.0 | 2.0 | 0.00 | 0.00 | 0.00 | 33 | 1013.0 |
| 20260903022317 | 65 | 356 | 2.0 | 2.0 | 0.00 | 0.00 | 0.00 | 34 | 1012.8 |
| 20260903021811 | 66 | 24 | 2.0 | 2.0 | 0.00 | 0.00 | 0.00 | 34 | 1012.9 |
| 20260903021307 | 67 | 3 | 2.0 | 2.0 | 0.00 | 0.00 | 0.00 | 29 | 1013.0 |
| 20260903020807 | 68 | 346 | 2.0 | 2.0 | 0.00 | 0.00 | 0.00 | 30 | 1013.1 |
| 20260903020307 | 69 | 9 | 2.0 | 2.0 | 0.00 | 0.00 | 0.00 | 30 | 1012.7 |
| 20260903015802 | 70 | 345 | 1.0 | 1.0 | 0.00 | 0.00 | 0.00 | 26 | 1012.8 |
| 20260903015257 | 71 | 224 | 0.0 | 2.0 | 0.00 | 0.00 | 0.00 | 25 | 1012.5 |
| 20260903014752 | 71 | 248 | 2.0 | 2.0 | 0.00 | 0.00 | 0.00 | 23 | 1012.7 |
| 20260903014247 | 72 | 211 | 0.0 | 2.0 | 0.00 | 0.00 | 0.00 | 24 | 1012.9 |
| 20260903013742 | 72 | 207 | 2.0 | 2.0 | 0.00 | 0.00 | 0.00 | 23 | 1012.9 |
| 20260903013241 | 73 | 320 | 2.0 | 3.0 | 0.00 | 0.00 | 0.00 | 25 | 1012.8 |
| 20260903012740 | 73 | 295 | 3.0 | 3.0 | 0.00 | 0.00 | 0.00 | 26 | 1012.8 |
| 20260903012239 | 74 | 296 | 1.0 | 4.0 | 0.00 | 0.00 | 0.00 | 23 | 1012.5 |
| 20260903011733 | 75 | 254 | 4.0 | 4.0 | 0.00 | 0.00 | 0.00 | 21 | 1012.9 |
| 20260903011228 | 75 | 303 | 2.0 | 6.0 | 0.00 | 0.00 | 0.00 | 22 | 1012.9 |
| 20260903010724 | 75 | 245 | 2.0 | 5.0 | 0.00 | 0.00 | 0.00 | 21 | 1012.5 |
| 20260903010223 | 75 | 274 | 1.0 | 4.0 | 0.00 | 0.00 | 0.00 | 23 | 1013.0 |
| 20260903005722 | 75 | 341 | 2.0 | 5.0 | 0.00 | 0.00 | 0.00 | 25 | 1012.7 |
| 20260903005217 | 76 | 316 | 3.0 | 4.0 | 0.00 | 0.00 | 0.00 | 25 | 1012.8 |
| 20260903004713 | 76 | 298 | 2.0 | 3.0 | 0.00 | 0.00 | 0.00 | 25 | 1012.9 |
| 20260903004209 | 77 | 308 | 2.0 | 4.0 | 0.00 | 0.00 | 0.00 | 23 | 1012.8 |
| 20260903003703 | 77 | 294 | 3.0 | 5.0 | 0.00 | 0.00 | 0.00 | 21 | 1012.8 |
| 20260903003159 | 78 | 277 | 3.0 | 6.0 | 0.00 | 0.00 | 0.00 | 22 | 1012.9 |
| 20260903002653 | 80 | 234 | 4.0 | 5.0 | 0.00 | 0.00 | 0.00 | 20 | 1012.9 |
| 20260903002148 | 80 | 153 | 5.0 | 8.0 | 0.00 | 0.00 | 0.00 | 21 | 1012.9 |
| 20260903001643 | 80 | 272 | 4.0 | 5.0 | 0.00 | 0.00 | 0.00 | 22 | 1013.0 |
| 20260903001142 | 80 | 286 | 2.0 | 4.0 | 0.00 | 0.00 | 0.00 | 22 | 1013.1 |
| 20260903000638 | 80 | 227 | 3.0 | 6.0 | 0.00 | 0.00 | 0.00 | 21 | 1013.1 |
| 20260903000132 | 81 | 256 | 3.0 | 4.0 | 0.00 | 0.00 | 0.00 | 21 | 1013.1 |
| 20260902235630 | 82 | 249 | 6.0 | 6.0 | 0.00 | 0.00 | 0.00 | 23 | 1013.1 |
| 20260902235126 | 82 | 281 | 0.0 | 4.0 | 0.00 | 0.00 | 0.00 | 21 | 1013.2 |
| 20260902234619 | 82 | 287 | 3.0 | 5.0 | 0.00 | 0.00 | 0.00 | 20 | 1013.0 |
| 20260902234118 | 82 | 291 | 2.0 | 4.0 | 0.00 | 0.00 | 0.00 | 22 | 1013.1 |
| 20260902233613 | 82 | 272 | 3.0 | 5.0 | 0.00 | 0.00 | 0.00 | 21 | 1013.4 |
| 20260902233108 | 82 | 249 | 5.0 | 6.0 | 0.00 | 0.00 | 0.00 | 22 | 1013.2 |
| 20260902232608 | 81 | 283 | 5.0 | 10.0 | 0.00 | 0.00 | 0.00 | 21 | 1013.2 |
| 20260902232101 | 82 | 292 | 3.0 | 8.0 | 0.00 | 0.00 | 0.00 | 21 | 1013.4 |
| 20260902231555 | 82 | 284 | 4.0 | 12.0 | 0.00 | 0.00 | 0.00 | 22 | 1013.1 |
| 20260902231050 | 83 | 193 | 2.0 | 3.0 | 0.00 | 0.00 | 0.00 | 21 | 1013.2 |
| 20260902230545 | 81 | 247 | 3.0 | 9.0 | 0.00 | 0.00 | 0.00 | 21 | 1013.1 |
| 20260902230044 | 82 | 226 | 3.0 | 12.0 | 0.00 | 0.00 | 0.00 | 22 | 1013.6 |
| 20260902225540 | 83 | 312 | 3.0 | 5.0 | 0.00 | 0.00 | 0.00 | 23 | 1013.4 |
| 20260902225039 | 82 | 244 | 4.0 | 6.0 | 0.00 | 0.00 | 0.00 | 21 | 1013.4 |
| 20260902224538 | 82 | 280 | 2.0 | 6.0 | 0.00 | 0.00 | 0.00 | 24 | 1013.2 |
| 20260902224034 | 82 | 245 | 6.0 | 11.0 | 0.00 | 0.00 | 0.00 | 20 | 1013.6 |
| 20260902223530 | 82 | 281 | 2.0 | 9.0 | 0.00 | 0.00 | 0.00 | 22 | 1013.5 |
| 20260902223029 | 82 | 171 | 3.0 | 8.0 | 0.00 | 0.00 | 0.00 | 23 | 1013.6 |
| 20260902222528 | 82 | 266 | 7.0 | 8.0 | 0.00 | 0.00 | 0.00 | 23 | 1013.6 |
| 20260902222026 | 83 | 286 | 3.0 | 6.0 | 0.00 | 0.00 | 0.00 | 24 | 1013.5 |
| 20260902221521 | 82 | 240 | 5.0 | 10.0 | 0.00 | 0.00 | 0.00 | 22 | 1013.7 |
| 20260902221017 | 82 | 343 | 2.0 | 9.0 | 0.00 | 0.00 | 0.00 | 21 | 1013.8 |
| 20260902220512 | 83 | 219 | 7.0 | 13.0 | 0.00 | 0.00 | 0.00 | 20 | 1013.8 |
| 20260902220006 | 84 | 274 | 6.0 | 8.0 | 0.00 | 0.00 | 0.00 | 24 | 1013.9 |
| 20260902215503 | 83 | 290 | 3.0 | 6.0 | 0.00 | 0.00 | 0.00 | 24 | 1013.9 |
| 20260902214958 | 82 | 241 | 6.0 | 13.0 | 0.00 | 0.00 | 0.00 | 21 | 1014.1 |
| 20260902214457 | 83 | 265 | 5.0 | 16.0 | 0.00 | 0.00 | 0.00 | 22 | 1013.9 |
| 20260902213955 | 83 | 256 | 2.0 | 8.0 | 0.00 | 0.00 | 0.00 | 24 | 1014.1 |
| 20260902213452 | 83 | 293 | 2.0 | 4.0 | 0.00 | 0.00 | 0.00 | 25 | 1013.9 |